Location: Ocean City
(38.3360°N, 75.0850°W)
Time: 03:16:12
(UTC-05:00)

deb Explorer IX - Pass Details

Date: 21 November 2019
Orbit: 546 x 1104 km, 38.8° (Epoch: 15 December)

Event Time Altitude Azimuth Distance (km) Brightness Sun altitude
Exits shadow 03:29:35 19° 101° (E) 1,694 ? -38.7°
Drops below altitude 10° 03:30:52 10° 101° (E) 2,164 ? -38.4°
Sets 03:33:04 0° 101° (E) 3,003 ? -38.0°
